Luverne, MN

11:05 AM CDT on April 21, 2018 (GMT -0500)
Luverne

Weather History for KLYV - March, 2013

Change the Weather History Date:

Wednesday, March 20, 2013

  Actual Average (KPQN) Record (KPQN)
Temperature  
Mean Temperature 16 °F -  
Max Temperature 24 °F 38 °F 68 °F (2015)
Min Temperature 8 °F 22 °F 3 °F (2002)
Degree Days  
Heating Degree Days 49    
Moisture  
Dew Point 5 °F    
Average Humidity 63    
Maximum Humidity 79    
Minimum Humidity 43    
Precipitation  
Precipitation 0.00 in - - ()
Sea Level Pressure  
Sea Level Pressure 30.26 in    
Wind  
Wind Speed 12 mph (NNW)    
Max Wind Speed 20 mph    
Max Gust Speed 28 mph    
Visibility 10 miles    
Events      
Averages and records for this station are not official NWS values.
T = Trace of Precipitation, MM = Missing Value Source: NWS Daily Summary

Daily Weather History Graph

Daily Weather History Graph

Search for Another Location

Airport or City:

Astronomy

Mar. 20, 2013 Rise Set
Actual Time 7:27 AM CDT 7:37 PM CDT
Civil Twilight 6:59 AM CDT 8:06 PM CDT
Nautical Twilight 6:25 AM CDT 8:39 PM CDT
Astronomical Twilight 5:51 AM CDT 9:14 PM CDT
Moon 1:03 PM CDT (3/20) 3:18 AM CDT (3/20)
Length of Visible Light 13h 07m
Length of Day
12h 10m
First Quarter, 59% of the Moon is Illuminated
Mar 20
First Quarter
Mar 27
Full
Apr 2
Last Quarter
Apr 10
New
Apr 18
First Quarter

Hourly Weather History & Observations

Time (CDT) Temp. Windchill Dew Point Humidity Pressure Visibility Wind Dir Wind Speed Gust Speed Precip Events Conditions
12:17 AM 14.0 °F -1.4 °F 6.8 °F 73% 30.32 in 10.0 mi NNW 15.0 mph 21.9 mph N/A   Scattered Clouds
12:37 AM 14.0 °F -2.0 °F 5.0 °F 67% 30.33 in 10.0 mi NNW 16.1 mph 26.5 mph N/A   Scattered Clouds
12:57 AM 12.2 °F -5.8 °F 5.0 °F 73% 30.32 in 10.0 mi NNW 19.6 mph - N/A   Clear
1:17 AM 12.2 °F -3.1 °F 5.0 °F 73% 30.32 in 10.0 mi NNW 13.8 mph 20.7 mph N/A   Clear
1:37 AM 12.2 °F -4.3 °F 5.0 °F 73% 30.32 in 10.0 mi NNW 16.1 mph 23.0 mph N/A   Clear
1:57 AM 12.2 °F -2.5 °F 5.0 °F 73% 30.33 in 10.0 mi NNW 12.7 mph - N/A   Clear
2:17 AM 12.2 °F -1.8 °F 5.0 °F 73% 30.34 in 10.0 mi NNW 11.5 mph - N/A   Clear
2:37 AM 12.2 °F -3.7 °F 5.0 °F 73% 30.34 in 10.0 mi NW 15.0 mph - N/A   Clear
2:57 AM 12.2 °F -1.8 °F 5.0 °F 73% 30.33 in 10.0 mi NNW 11.5 mph 18.4 mph N/A   Clear
3:17 AM 10.4 °F -3.3 °F 5.0 °F 79% 30.34 in 10.0 mi NW 10.4 mph - N/A   Clear
3:37 AM 10.4 °F -5.4 °F 5.0 °F 79% 30.33 in 10.0 mi NW 13.8 mph 17.3 mph N/A   Clear
3:57 AM 10.4 °F -4.1 °F 5.0 °F 79% 30.34 in 10.0 mi NW 11.5 mph - N/A   Clear
4:17 AM 10.4 °F -2.4 °F 3.2 °F 73% 30.34 in 10.0 mi NW 9.2 mph - N/A   Clear
4:36 AM 10.4 °F -3.3 °F 3.2 °F 73% 30.34 in 10.0 mi NW 10.4 mph - N/A   Clear
4:57 AM 10.4 °F -4.8 °F 3.2 °F 73% 30.34 in 10.0 mi NW 12.7 mph - N/A   Clear
5:17 AM 10.4 °F -4.8 °F 3.2 °F 73% 30.34 in 10.0 mi NW 12.7 mph - N/A   Clear
5:36 AM 10.4 °F -3.3 °F 3.2 °F 73% 30.34 in 10.0 mi NW 10.4 mph 16.1 mph N/A   Clear
5:57 AM 10.4 °F -2.4 °F 3.2 °F 73% 30.34 in 10.0 mi NW 9.2 mph - N/A   Clear
6:17 AM 10.4 °F -3.3 °F 3.2 °F 73% 30.34 in 10.0 mi NNW 10.4 mph - N/A   Clear
6:36 AM 10.4 °F -2.4 °F 3.2 °F 73% 30.35 in 10.0 mi NW 9.2 mph - N/A   Clear
6:57 AM 10.4 °F -3.3 °F 3.2 °F 73% 30.35 in 10.0 mi NW 10.4 mph - N/A   Clear
7:17 AM 8.6 °F -4.7 °F 3.2 °F 79% 30.35 in 10.0 mi NNW 9.2 mph - N/A   Clear
7:36 AM 8.6 °F -4.7 °F 3.2 °F 79% 30.34 in 10.0 mi NW 9.2 mph - N/A   Clear
7:57 AM 8.6 °F -4.7 °F 3.2 °F 79% 30.34 in 10.0 mi NW 9.2 mph - N/A   Clear
8:17 AM 10.4 °F -3.3 °F 3.2 °F 73% 30.34 in 10.0 mi NNW 10.4 mph - N/A   Clear
8:37 AM 10.4 °F -3.3 °F 3.2 °F 73% 30.34 in 10.0 mi NNW 10.4 mph - N/A   Clear
8:57 AM 10.4 °F -3.3 °F 3.2 °F 73% 30.34 in 10.0 mi NNW 10.4 mph - N/A   Clear
9:17 AM 12.2 °F -1.0 °F 3.2 °F 67% 30.33 in 10.0 mi NNW 10.4 mph - N/A   Clear
9:36 AM 14.0 °F 0.5 °F 5.0 °F 67% 30.33 in 10.0 mi NNW 11.5 mph 16.1 mph N/A   Clear
9:57 AM 14.0 °F -1.4 °F 5.0 °F 67% 30.33 in 10.0 mi NW 15.0 mph 19.6 mph N/A   Clear
10:17 AM 15.8 °F 0.9 °F 5.0 °F 62% 30.33 in 10.0 mi NNW 15.0 mph 18.4 mph N/A   Clear
10:57 AM 17.6 °F 3.7 °F 5.0 °F 58% 30.32 in 10.0 mi NNW 13.8 mph 19.6 mph N/A   Clear
11:17 AM 17.6 °F 3.2 °F 5.0 °F 58% 30.32 in 10.0 mi NNW 15.0 mph 20.7 mph N/A   Scattered Clouds
11:37 AM 19.4 °F 5.5 °F 5.0 °F 54% 30.32 in 10.0 mi North 15.0 mph 19.6 mph N/A   Clear
11:57 AM 19.4 °F 5.0 °F 5.0 °F 54% 30.31 in 10.0 mi NNW 16.1 mph 21.9 mph N/A   Clear
12:15 PM 21.2 °F 7.8 °F 5.0 °F 50% 30.31 in 10.0 mi North 15.0 mph 18.4 mph N/A   Clear
12:37 PM 21.2 °F 8.9 °F 5.0 °F 50% 30.29 in 10.0 mi NNW 12.7 mph 20.7 mph N/A   Scattered Clouds
12:56 PM 21.2 °F 7.8 °F 6.8 °F 54% 30.29 in 10.0 mi NNW 15.0 mph - N/A   Clear
1:17 PM 21.2 °F 10.1 °F 5.0 °F 50% 30.28 in 10.0 mi NNW 10.4 mph 21.9 mph N/A   Clear
1:37 PM 21.2 °F 8.9 °F 5.0 °F 50% 30.27 in 10.0 mi NNW 12.7 mph 23.0 mph N/A   Clear
1:57 PM 23.0 °F 9.2 °F 6.8 °F 50% 30.26 in 10.0 mi NNW 17.3 mph 20.7 mph N/A   Clear
2:17 PM 23.0 °F 10.6 °F 6.8 °F 50% 30.25 in 10.0 mi NNW 13.8 mph 20.7 mph N/A   Clear
2:37 PM 23.0 °F 9.2 °F 8.6 °F 54% 30.24 in 10.0 mi NNW 17.3 mph 20.7 mph N/A   Scattered Clouds
2:57 PM 23.0 °F 10.1 °F 8.6 °F 54% 30.23 in 10.0 mi NNW 15.0 mph 21.9 mph N/A   Scattered Clouds
3:17 PM 23.0 °F 11.1 °F 6.8 °F 50% 30.22 in 10.0 mi NNW 12.7 mph 27.6 mph N/A   Clear
3:37 PM 23.0 °F 9.6 °F 6.8 °F 50% 30.21 in 10.0 mi NNW 16.1 mph 21.9 mph N/A   Clear
3:57 PM 24.8 °F 12.9 °F 8.6 °F 50% 30.21 in 10.0 mi NNW 13.8 mph - N/A   Clear
4:17 PM 24.8 °F 14.6 °F 6.8 °F 46% 30.20 in 10.0 mi NNW 10.4 mph 19.6 mph N/A   Clear
4:37 PM 24.8 °F 12.9 °F 6.8 °F 46% 30.19 in 10.0 mi North 13.8 mph 18.4 mph N/A   Clear
4:57 PM 24.8 °F 12.9 °F 5.0 °F 43% 30.19 in 10.0 mi NNW 13.8 mph - N/A   Clear
5:17 PM 24.8 °F 12.9 °F 6.8 °F 46% 30.19 in 10.0 mi NNW 13.8 mph 17.3 mph N/A   Clear
5:37 PM 24.8 °F 14.0 °F 6.8 °F 46% 30.18 in 10.0 mi North 11.5 mph 16.1 mph N/A   Clear
5:57 PM 24.8 °F 14.6 °F 6.8 °F 46% 30.17 in 10.0 mi NNW 10.4 mph - N/A   Clear
6:16 PM 23.0 °F 11.1 °F 6.8 °F 50% 30.17 in 10.0 mi North 12.7 mph 16.1 mph N/A   Clear
6:37 PM 23.0 °F 11.7 °F 6.8 °F 50% 30.17 in 10.0 mi NNW 11.5 mph 16.1 mph N/A   Clear
6:57 PM 23.0 °F 12.4 °F 8.6 °F 54% 30.17 in 10.0 mi North 10.4 mph - N/A   Clear
7:16 PM 21.2 °F 9.5 °F 8.6 °F 58% 30.16 in 10.0 mi North 11.5 mph - N/A   Clear
7:37 PM 21.2 °F 11.7 °F 8.6 °F 58% 30.16 in 10.0 mi North 8.1 mph - N/A   Clear
7:57 PM 19.4 °F 7.9 °F 8.6 °F 63% 30.15 in 10.0 mi North 10.4 mph - N/A   Clear
8:16 PM 19.4 °F 11.5 °F 6.8 °F 58% 30.16 in 10.0 mi North 5.8 mph - N/A   Clear
8:37 PM 19.4 °F 12.8 °F 8.6 °F 63% 30.15 in 10.0 mi North 4.6 mph - N/A   Clear
8:57 PM 17.6 °F 9.3 °F 8.6 °F 68% 30.15 in 10.0 mi North 5.8 mph - N/A   Clear
9:17 PM 17.6 °F 9.3 °F 5.0 °F 58% 30.15 in 10.0 mi North 5.8 mph - N/A   Clear
9:37 PM 17.6 °F 8.2 °F 5.0 °F 58% 30.15 in 10.0 mi North 6.9 mph - N/A   Clear
9:57 PM 17.6 °F 9.3 °F 5.0 °F 58% 30.14 in 10.0 mi North 5.8 mph - N/A   Clear
10:17 PM 15.8 °F 10.2 °F 6.8 °F 68% 30.14 in 10.0 mi North 3.5 mph - N/A   Clear
10:36 PM 14.0 °F - 6.8 °F 73% 30.14 in 10.0 mi Calm Calm - N/A   Clear
10:57 PM 14.0 °F 6.5 °F 5.0 °F 67% 30.14 in 10.0 mi NNE 4.6 mph - N/A   Clear
11:17 PM 14.0 °F 6.5 °F 5.0 °F 67% 30.14 in 10.0 mi NNE 4.6 mph - N/A   Clear
11:36 PM 14.0 °F 6.5 °F 5.0 °F 67% 30.13 in 10.0 mi NNE 4.6 mph - N/A   Clear
11:57 PM 14.0 °F 8.2 °F 6.8 °F 73% 30.12 in 10.0 mi NE 3.5 mph - N/A   Clear